SWA3847 KSJC-KLAX

Flight info

Callsign SWA3847
Flight time 0h 49m
Altitude 37000
Route SPTNS1 VLREE EBAYE BURGL IRNMN2
Aircraft B737/M-SDE2E3FGHIRWXY/LB1

Departure

Time 2026-04-26 22:14
Airport Norman Y. Mineta San Jose International Airport (KSJC)

Arrival

Time 2026-04-26 23:04
Airport Los Angeles International Airport (KLAX)
Time Latitude Longitude Altitude Speed Heading
2026-04-26 21:39 37.36652 -121.92707 60 ft 0 kts 49°
2026-04-26 22:06 37.36651 -121.92708 60 ft 2 kts 49°
2026-04-26 22:06 37.36634 -121.92733 55 ft 4 kts 49°
2026-04-26 22:07 37.36620 -121.92753 52 ft 4 kts 59°
2026-04-26 22:07 37.36613 -121.92781 52 ft 4 kts 110°
2026-04-26 22:07 37.36627 -121.92804 52 ft 3 kts 139°
2026-04-26 22:07 37.36630 -121.92807 52 ft 0 kts 139°
2026-04-26 22:09 37.36628 -121.92805 54 ft 2 kts 139°
2026-04-26 22:09 37.36610 -121.92784 56 ft 6 kts 138°
2026-04-26 22:10 37.36571 -121.92742 56 ft 9 kts 139°
2026-04-26 22:10 37.36515 -121.92691 57 ft 11 kts 169°
2026-04-26 22:10 37.36443 -121.92698 58 ft 11 kts 154°
2026-04-26 22:10 37.36381 -121.92632 57 ft 13 kts 139°
2026-04-26 22:11 37.36307 -121.92551 57 ft 15 kts 139°
2026-04-26 22:11 37.36222 -121.92457 62 ft 17 kts 139°
2026-04-26 22:11 37.36125 -121.92351 59 ft 20 kts 139°
2026-04-26 22:11 37.36022 -121.92237 59 ft 20 kts 139°
2026-04-26 22:12 37.35912 -121.92118 60 ft 21 kts 139°
2026-04-26 22:12 37.35803 -121.91999 57 ft 20 kts 139°
2026-04-26 22:12 37.35698 -121.91882 53 ft 20 kts 139°
2026-04-26 22:12 37.35596 -121.91769 56 ft 19 kts 139°
2026-04-26 22:13 37.35496 -121.91661 62 ft 19 kts 139°
2026-04-26 22:13 37.35401 -121.91555 60 ft 18 kts 139°
2026-04-26 22:13 37.35299 -121.91478 58 ft 17 kts 189°
2026-04-26 22:13 37.35286 -121.91590 60 ft 17 kts 317°
2026-04-26 22:14 37.35398 -121.91714 59 ft 42 kts 319°
2026-04-26 22:14 37.35820 -121.92176 60 ft 116 kts 318°
2026-04-26 22:14 37.36561 -121.92987 231 ft 157 kts 321°
2026-04-26 22:14 37.37430 -121.93914 843 ft 168 kts 320°
2026-04-26 22:15 37.38335 -121.94888 1693 ft 174 kts 315°
2026-04-26 22:15 37.39249 -121.95893 2474 ft 182 kts 313°
2026-04-26 22:15 37.40270 -121.96976 3053 ft 199 kts 322°
2026-04-26 22:15 37.41644 -121.97412 3775 ft 216 kts
2026-04-26 22:16 37.43053 -121.96679 4467 ft 229 kts 40°
2026-04-26 22:16 37.43924 -121.95066 4862 ft 224 kts 77°
2026-04-26 22:16 37.43836 -121.93218 4943 ft 212 kts 121°
2026-04-26 22:16 37.42911 -121.91795 5108 ft 213 kts 140°
2026-04-26 22:17 37.41756 -121.90431 5379 ft 243 kts 141°
2026-04-26 22:17 37.40476 -121.88876 5869 ft 264 kts 139°
2026-04-26 22:17 37.39168 -121.87226 6731 ft 271 kts 137°
2026-04-26 22:17 37.37844 -121.85501 7591 ft 278 kts 135°
2026-04-26 22:18 37.36497 -121.83711 8473 ft 286 kts 135°
2026-04-26 22:18 37.35108 -121.81847 9334 ft 296 kts 135°
2026-04-26 22:18 37.33691 -121.79940 10309 ft 300 kts 134°
2026-04-26 22:18 37.32205 -121.77980 10771 ft 323 kts 137°
2026-04-26 22:19 37.30504 -121.75989 11300 ft 340 kts 140°
2026-04-26 22:19 37.28730 -121.74003 12268 ft 342 kts 140°
2026-04-26 22:19 37.26940 -121.72012 13251 ft 347 kts 141°
2026-04-26 22:19 37.25121 -121.69983 14108 ft 354 kts 141°
2026-04-26 22:20 37.23265 -121.67909 14927 ft 360 kts 140°
2026-04-26 22:20 37.22024 -121.66515 15519 ft 364 kts 140°
2026-04-26 22:20 37.19481 -121.63639 16662 ft 372 kts 140°
2026-04-26 22:20 37.17543 -121.61446 17518 ft 378 kts 141°
2026-04-26 22:21 37.15573 -121.59218 18366 ft 385 kts 141°
2026-04-26 22:21 37.13597 -121.56986 19105 ft 390 kts 141°
2026-04-26 22:21 37.11572 -121.54699 19921 ft 393 kts 141°
2026-04-26 22:21 37.09528 -121.52391 20742 ft 398 kts 141°
2026-04-26 22:22 37.07457 -121.50061 21524 ft 403 kts 141°
2026-04-26 22:22 37.05366 -121.47692 22288 ft 408 kts 141°
2026-04-26 22:22 37.03226 -121.45336 23028 ft 412 kts 143°
2026-04-26 22:22 37.01030 -121.43013 23773 ft 415 kts 144°
2026-04-26 22:23 36.98803 -121.40682 24406 ft 419 kts 144°
2026-04-26 22:23 36.96557 -121.38328 25024 ft 423 kts 144°
2026-04-26 22:23 36.94294 -121.35944 25645 ft 427 kts 144°
2026-04-26 22:23 36.92016 -121.33535 26239 ft 431 kts 143°
2026-04-26 22:24 36.89727 -121.31105 26902 ft 433 kts 143°
2026-04-26 22:24 36.87423 -121.28657 27495 ft 437 kts 143°
2026-04-26 22:24 36.85097 -121.26186 28048 ft 441 kts 143°
2026-04-26 22:24 36.82750 -121.23695 28607 ft 445 kts 143°
2026-04-26 22:25 36.80378 -121.21179 29152 ft 449 kts 143°
2026-04-26 22:25 36.77988 -121.18646 29695 ft 452 kts 143°
2026-04-26 22:25 36.75583 -121.16100 30188 ft 455 kts 143°
2026-04-26 22:25 36.73162 -121.13538 30653 ft 457 kts 143°
2026-04-26 22:26 36.70729 -121.10967 31100 ft 459 kts 143°
2026-04-26 22:26 36.68289 -121.08388 31537 ft 461 kts 143°
2026-04-26 22:26 36.65842 -121.05806 32041 ft 460 kts 143°
2026-04-26 22:26 36.63408 -121.03239 32652 ft 457 kts 144°
2026-04-26 22:27 36.61805 -121.01550 33068 ft 454 kts 144°
2026-04-26 22:27 36.59392 -120.99028 33615 ft 452 kts 144°
2026-04-26 22:27 36.56965 -120.96543 34041 ft 452 kts 145°
2026-04-26 22:27 36.54527 -120.94072 34392 ft 453 kts 145°
2026-04-26 22:28 36.52077 -120.91598 34701 ft 454 kts 146°
2026-04-26 22:28 36.49617 -120.89118 34985 ft 456 kts 146°
2026-04-26 22:28 36.47163 -120.86637 35397 ft 453 kts 146°
2026-04-26 22:28 36.44722 -120.84167 35811 ft 452 kts 146°
2026-04-26 22:29 36.42280 -120.81687 36058 ft 455 kts 146°
2026-04-26 22:29 36.39819 -120.79195 36328 ft 457 kts 146°
2026-04-26 22:29 36.37358 -120.76703 36674 ft 457 kts 146°
2026-04-26 22:29 36.34898 -120.74215 37020 ft 457 kts 146°
2026-04-26 22:30 36.29916 -120.69185 37030 ft 463 kts 146°
2026-04-26 22:30 36.24956 -120.64178 36995 ft 455 kts 146°
2026-04-26 22:31 36.20055 -120.59239 37006 ft 454 kts 146°
2026-04-26 22:31 36.15180 -120.54345 37022 ft 454 kts 146°
2026-04-26 22:32 36.10260 -120.49414 36999 ft 456 kts 146°
2026-04-26 22:32 36.05334 -120.44480 37005 ft 456 kts 146°
2026-04-26 22:33 35.97930 -120.37078 37009 ft 457 kts 146°
2026-04-26 22:34 35.92985 -120.32144 37000 ft 457 kts 147°
2026-04-26 22:34 35.88040 -120.27220 37006 ft 457 kts 147°
2026-04-26 22:35 35.82846 -120.22821 37014 ft 451 kts 155°
2026-04-26 22:35 35.77456 -120.18898 37019 ft 449 kts 155°
2026-04-26 22:36 35.72100 -120.14942 37010 ft 449 kts 154°
2026-04-26 22:36 35.66778 -120.10906 37013 ft 449 kts 154°
2026-04-26 22:37 35.61452 -120.06889 37019 ft 449 kts 154°
2026-04-26 22:37 35.56123 -120.02872 36998 ft 449 kts 155°
2026-04-26 22:38 35.50797 -119.98862 37014 ft 449 kts 155°
2026-04-26 22:38 35.45465 -119.94854 37010 ft 450 kts 155°
2026-04-26 22:39 35.40125 -119.90845 36978 ft 450 kts 155°
2026-04-26 22:39 35.34789 -119.86843 36991 ft 450 kts 155°
2026-04-26 22:39 35.32146 -119.84866 36616 ft 454 kts 155°
2026-04-26 22:40 35.29457 -119.82855 36112 ft 452 kts 154°
2026-04-26 22:40 35.26826 -119.80733 35507 ft 454 kts 150°
2026-04-26 22:40 35.24290 -119.78412 34895 ft 456 kts 147°
2026-04-26 22:40 35.21810 -119.76019 34430 ft 452 kts 146°
2026-04-26 22:41 35.19362 -119.73639 33963 ft 448 kts 146°
2026-04-26 22:41 35.16924 -119.71293 33436 ft 444 kts 147°
2026-04-26 22:41 35.14499 -119.68991 32928 ft 439 kts 147°
2026-04-26 22:41 35.12089 -119.66728 32482 ft 434 kts 147°
2026-04-26 22:42 35.09701 -119.64500 32019 ft 430 kts 147°
2026-04-26 22:42 35.07332 -119.62297 31579 ft 426 kts 147°
2026-04-26 22:42 35.04985 -119.60118 31154 ft 422 kts 147°
2026-04-26 22:42 35.02664 -119.57962 30703 ft 418 kts 147°
2026-04-26 22:43 35.00361 -119.55825 30293 ft 414 kts 147°
2026-04-26 22:43 34.98075 -119.53705 29861 ft 411 kts 147°
2026-04-26 22:43 34.95807 -119.51602 29356 ft 407 kts 147°
2026-04-26 22:43 34.93549 -119.49553 28930 ft 402 kts 146°
2026-04-26 22:44 34.91341 -119.47490 28453 ft 399 kts 146°
2026-04-26 22:44 34.89147 -119.45459 28009 ft 394 kts 147°
2026-04-26 22:44 34.86950 -119.43491 27589 ft 390 kts 147°
2026-04-26 22:44 34.84764 -119.41552 27136 ft 387 kts 147°
2026-04-26 22:45 34.82630 -119.39658 26716 ft 383 kts 147°
2026-04-26 22:45 34.80458 -119.37724 26277 ft 381 kts 147°
2026-04-26 22:45 34.78359 -119.35850 25859 ft 378 kts 147°
2026-04-26 22:45 34.76245 -119.33964 25434 ft 376 kts 147°
2026-04-26 22:46 34.74143 -119.32092 25016 ft 373 kts 147°
2026-04-26 22:46 34.72042 -119.30250 24592 ft 371 kts 147°
2026-04-26 22:46 34.69949 -119.28427 24174 ft 369 kts 147°
2026-04-26 22:46 34.67870 -119.26615 23760 ft 367 kts 147°
2026-04-26 22:47 34.65800 -119.24809 23315 ft 365 kts 147°
2026-04-26 22:47 34.63743 -119.23020 22858 ft 363 kts 147°
2026-04-26 22:47 34.61697 -119.21254 22415 ft 359 kts 148°
2026-04-26 22:47 34.59666 -119.19511 22012 ft 356 kts 148°
2026-04-26 22:48 34.57654 -119.17779 21570 ft 354 kts 148°
2026-04-26 22:48 34.55658 -119.16051 21147 ft 351 kts 147°
2026-04-26 22:48 34.53688 -119.14310 20738 ft 349 kts 147°
2026-04-26 22:48 34.51733 -119.12572 20324 ft 348 kts 147°
2026-04-26 22:49 34.49784 -119.10840 19883 ft 347 kts 147°
2026-04-26 22:49 34.47835 -119.09111 19461 ft 346 kts 147°
2026-04-26 22:49 34.45891 -119.07391 19044 ft 345 kts 147°
2026-04-26 22:49 34.43955 -119.05686 18637 ft 343 kts 148°
2026-04-26 22:50 34.42019 -119.04004 18243 ft 342 kts 148°
2026-04-26 22:50 34.40088 -119.02332 17780 ft 341 kts 148°
2026-04-26 22:50 34.38166 -119.00669 17339 ft 339 kts 148°
2026-04-26 22:50 34.36253 -118.99014 16896 ft 337 kts 148°
2026-04-26 22:51 34.34350 -118.97368 16486 ft 335 kts 148°
2026-04-26 22:51 34.32476 -118.95695 16071 ft 334 kts 146°
2026-04-26 22:51 34.30626 -118.94003 15639 ft 333 kts 146°
2026-04-26 22:51 34.28784 -118.92323 15233 ft 331 kts 146°
2026-04-26 22:52 34.26948 -118.90656 14832 ft 329 kts 146°
2026-04-26 22:52 34.25123 -118.89000 14417 ft 328 kts 146°
2026-04-26 22:52 34.23315 -118.87340 14064 ft 325 kts 145°
2026-04-26 22:52 34.21525 -118.85692 13645 ft 323 kts 146°
2026-04-26 22:53 34.19738 -118.84049 13216 ft 322 kts 146°
2026-04-26 22:53 34.17960 -118.82416 12788 ft 320 kts 145°
2026-04-26 22:53 34.16236 -118.80822 12614 ft 308 kts 144°
2026-04-26 22:53 34.14590 -118.79105 12097 ft 312 kts 141°
2026-04-26 22:54 34.12991 -118.77336 11659 ft 312 kts 141°
2026-04-26 22:54 34.11396 -118.75568 11271 ft 311 kts 141°
2026-04-26 22:54 34.09806 -118.73810 10837 ft 310 kts 141°
2026-04-26 22:54 34.08223 -118.72070 10498 ft 306 kts 141°
2026-04-26 22:55 34.06641 -118.70355 10164 ft 304 kts 141°
2026-04-26 22:55 34.05091 -118.68676 9989 ft 297 kts 141°
2026-04-26 22:55 34.03617 -118.66938 9593 ft 299 kts 128°
2026-04-26 22:55 34.02774 -118.64663 9276 ft 298 kts 102°
2026-04-26 22:56 34.02498 -118.62199 8929 ft 296 kts 95°
2026-04-26 22:56 34.02298 -118.59740 8572 ft 294 kts 95°
2026-04-26 22:56 34.02090 -118.57299 8211 ft 292 kts 96°
2026-04-26 22:56 34.01873 -118.54859 7895 ft 294 kts 96°
2026-04-26 22:57 34.01646 -118.52389 7667 ft 298 kts 96°
2026-04-26 22:57 34.01413 -118.49895 7418 ft 301 kts 96°
2026-04-26 22:57 34.01177 -118.47397 7160 ft 300 kts 96°
2026-04-26 22:57 34.01087 -118.44911 6883 ft 296 kts 81°
2026-04-26 22:58 34.01497 -118.42506 6669 ft 291 kts 75°
2026-04-26 22:58 34.01942 -118.40145 6425 ft 286 kts 76°
2026-04-26 22:58 34.02364 -118.37812 6160 ft 284 kts 76°
2026-04-26 22:58 34.02767 -118.35485 5888 ft 284 kts 80°
2026-04-26 22:59 34.03042 -118.33131 5520 ft 283 kts 84°
2026-04-26 22:59 34.03264 -118.30773 5191 ft 284 kts 84°
2026-04-26 22:59 34.03490 -118.28416 4845 ft 282 kts 83°
2026-04-26 22:59 34.03716 -118.26076 4460 ft 280 kts 86°
2026-04-26 23:00 34.03492 -118.23791 4094 ft 274 kts 116°
2026-04-26 23:00 34.02326 -118.22034 3829 ft 269 kts 150°
2026-04-26 23:00 34.00602 -118.21268 3509 ft 264 kts 180°
2026-04-26 23:00 33.98841 -118.21541 3122 ft 253 kts 211°
2026-04-26 23:01 33.97641 -118.22929 2941 ft 236 kts 242°
2026-04-26 23:01 33.96967 -118.24700 2657 ft 229 kts 252°
2026-04-26 23:01 33.96606 -118.26530 2362 ft 221 kts 261°
2026-04-26 23:01 33.96424 -118.28309 2076 ft 214 kts 263°
2026-04-26 23:02 33.96252 -118.30063 1801 ft 208 kts 263°
2026-04-26 23:02 33.96077 -118.31758 1548 ft 197 kts 263°
2026-04-26 23:02 33.95916 -118.33313 1292 ft 178 kts 262°
2026-04-26 23:02 33.95772 -118.34720 1047 ft 161 kts 263°
2026-04-26 23:03 33.95642 -118.35982 831 ft 143 kts 263°
2026-04-26 23:03 33.95527 -118.37071 784 ft 123 kts 263°
2026-04-26 23:03 33.95424 -118.38072 535 ft 118 kts 262°
2026-04-26 23:03 33.95326 -118.39086 320 ft 130 kts 261°
2026-04-26 23:04 33.95213 -118.40192 146 ft 130 kts 259°
2026-04-26 23:04 33.95111 -118.41162 91 ft 98 kts 263°
2026-04-26 23:04 33.95054 -118.41729 93 ft 47 kts 263°
2026-04-26 23:04 33.95018 -118.42020 95 ft 29 kts 253°
2026-04-26 23:05 33.94931 -118.42205 94 ft 24 kts 224°
2026-04-26 23:05 33.94788 -118.42282 95 ft 23 kts 179°
2026-04-26 23:05 33.94689 -118.42219 96 ft 17 kts 99°
2026-04-26 23:05 33.94698 -118.42080 92 ft 16 kts 83°
2026-04-26 23:06 33.94712 -118.41946 92 ft 16 kts 83°
2026-04-26 23:06 33.94724 -118.41817 92 ft 15 kts 83°
2026-04-26 23:06 33.94737 -118.41694 92 ft 15 kts 83°
2026-04-26 23:06 33.94750 -118.41575 94 ft 14 kts 84°
2026-04-26 23:07 33.94761 -118.41462 95 ft 13 kts 82°
2026-04-26 23:07 33.94775 -118.41391 94 ft 13 kts 73°
2026-04-26 23:07 33.94797 -118.41236 93 ft 15 kts 83°
2026-04-26 23:07 33.94811 -118.41106 94 ft 16 kts 83°
2026-04-26 23:08 33.94824 -118.40971 94 ft 16 kts 83°
2026-04-26 23:08 33.94839 -118.40836 94 ft 17 kts 82°
2026-04-26 23:08 33.94854 -118.40692 93 ft 18 kts 83°
2026-04-26 23:08 33.94869 -118.40542 93 ft 18 kts 83°
2026-04-26 23:09 33.94884 -118.40397 93 ft 17 kts 83°
2026-04-26 23:09 33.94898 -118.40256 93 ft 17 kts 82°
2026-04-26 23:09 33.94914 -118.40129 94 ft 13 kts 86°
2026-04-26 23:09 33.94853 -118.40071 92 ft 10 kts 146°
2026-04-26 23:10 33.94818 -118.40005 95 ft 10 kts 161°
2026-04-26 23:10 33.94774 -118.40041 95 ft 6 kts 242°
2026-04-26 23:10 33.94766 -118.40060 93 ft 1 kts 242°
2026-04-26 23:10 33.94764 -118.40064 92 ft 0 kts 242°